"Pseudo-MPEC" for X74124

Created 2021 Sep 20 16:07:20 UT using Find_Orb

Click here for an explanation of pseudo-MPECs

 
 Astrometry: 
     X74124   C2021 09 08\2?_Xg@=aM]yq+7KaXGamFT9lO^AstrometryvX5XD.=Wu8Y9S`PD29
     X74124   C2021 09 08RW[i)w*8I*mcwB!sTjQredacted;xyIUN;4gnOclickF`SjiPlNiD29
     X74124   C2021 09 08;X6XUX4(2XZd1]here@`forx.'l]ylDS\g]N;explanationDtV)D29

Station data:
(D29) Purple Mountain Observatory, XuYi Station  (N32.734366 E118.463900)
   China.  Observers H. B. Zhao, B. Li, G. Zhaori, R. Q. Hong, L. F. Hu.
   Measurers H. B. Zhao, B. Li. H. Lu, G. Zhaori. 1.04-m f/1.8 Schmidt + CCD.

Orbital elements:  X74124
   Perihelion 2021 Jul 23.933855 +/- 50.6382 TT = 22:24:45 (JD 2459419.433855)
Epoch 2021 Sep  9.0 TT = JDT 2459466.5   Earth MOID: 0.3528   Ma: 0.0029
M  11.48763817 +/- 19.555292        (J2000 ecliptic)          AutoNEOCP
n   0.24407433 +/- 0.241658         Peri.  330.93091 +/- 61.573203
a   2.53583682 +/- 1.67379          Node   340.14752 +/- 40.316686
e   0.4679351 +/- 0.252413          Incl.   12.86361 +/- 7.3864654
P   4.04                   H 22.3   G  0.15   U 11.8  SR
q 1.34922960 +/- 0.360123    Q 3.72244404 +/- 59.7165
From 3 observations 2021 Sept. 8 (40.7 min); mean residual 0".32
Residuals in arcseconds: 
210908 D29  .31-  .08-    210908 D29  .61+  .16+    210908 D29  .30-  .08-    

Ephemerides (geocentric):
Date (UTC) HH   RA              Dec         delta   r     elong  mag " sig PA
---- -- -- --  -------------   -----------  ------ ------ -----  --- ---- ---
2021 09 20 16  22 43 57.014   +01 33 53.90  .48085 1.4707 163.0 22.3  46d   2
2021 09 20 17  22 43 55.659   +01 34 41.21  .48109 1.4709 162.9 22.3  46d   2
2021 09 20 18  22 43 54.308   +01 35 28.45  .48134 1.4710 162.9 22.3  46d   2
2021 09 20 19  22 43 52.961   +01 36 15.65  .48159 1.4712 162.9 22.3  46d   2
2021 09 20 20  22 43 51.619   +01 37 02.78  .48184 1.4713 162.8 22.3  46d   2
2021 09 20 21  22 43 50.281   +01 37 49.87  .48209 1.4715 162.8 22.3  46d   2
2021 09 20 22  22 43 48.947   +01 38 36.89  .48233 1.4717 162.7 22.3  46d   2
2021 09 20 23  22 43 47.617   +01 39 23.87  .48258 1.4718 162.7 22.3  46d   2
2021 09 21 00  22 43 46.292   +01 40 10.79  .48283 1.4720 162.7 22.3  46d   2
2021 09 21 01  22 43 44.971   +01 40 57.65  .48308 1.4721 162.6 22.3  46d   2
2021 09 21 02  22 43 43.654   +01 41 44.46  .48333 1.4723 162.6 22.3  46d   2
2021 09 21 03  22 43 42.341   +01 42 31.21  .48358 1.4725 162.5 22.3  46d   2
2021 09 21 04  22 43 41.033   +01 43 17.91  .48383 1.4726 162.5 22.3  46d   2
2021 09 21 05  22 43 39.729   +01 44 04.56  .48408 1.4728 162.4 22.3  46d   2
2021 09 21 06  22 43 38.429   +01 44 51.15  .48433 1.4729 162.4 22.3  46d   2
2021 09 21 07  22 43 37.133   +01 45 37.69  .48458 1.4731 162.4 22.3  46d   2
2021 09 21 08  22 43 35.842   +01 46 24.17  .48484 1.4733 162.3 22.3  46d   2
2021 09 21 09  22 43 34.555   +01 47 10.60  .48509 1.4734 162.3 22.3  46d   2
2021 09 21 10  22 43 33.272   +01 47 56.97  .48534 1.4736 162.2 22.3  46d   2
2021 09 21 11  22 43 31.993   +01 48 43.29  .48559 1.4738 162.2 22.3  46d   2
2021 09 21 12  22 43 30.719   +01 49 29.56  .48584 1.4739 162.2 22.3  46d   2
2021 09 21 13  22 43 29.449   +01 50 15.77  .48610 1.4741 162.1 22.3  46d   2
2021 09 21 14  22 43 28.183   +01 51 01.93  .48635 1.4742 162.1 22.3  46d   2
2021 09 21 15  22 43 26.922   +01 51 48.03  .48660 1.4744 162.0 22.3  46d   2
2021 09 21 16  22 43 25.665   +01 52 34.08  .48686 1.4746 162.0 22.3  46d   2
2021 09 21 17  22 43 24.412   +01 53 20.08  .48711 1.4747 161.9 22.3  46d   2
2021 09 21 18  22 43 23.163   +01 54 06.02  .48737 1.4749 161.9 22.3  46d   1
2021 09 21 19  22 43 21.919   +01 54 51.90  .48762 1.4751 161.9 22.3  46d   1
2021 09 21 20  22 43 20.679   +01 55 37.74  .48787 1.4752 161.8 22.3  46d   1
2021 09 21 21  22 43 19.443   +01 56 23.52  .48813 1.4754 161.8 22.3  46d   1
2021 09 21 22  22 43 18.211   +01 57 09.24  .48839 1.4755 161.7 22.4  46d   1
2021 09 21 23  22 43 16.984   +01 57 54.91  .48864 1.4757 161.7 22.4  46d   1
2021 09 22 00  22 43 15.761   +01 58 40.53  .48890 1.4759 161.7 22.4  46d   1
2021 09 22 01  22 43 14.542   +01 59 26.10  .48915 1.4760 161.6 22.4  46d   1
2021 09 22 02  22 43 13.328   +02 00 11.61  .48941 1.4762 161.6 22.4  46d   1
2021 09 22 03  22 43 12.118   +02 00 57.06  .48967 1.4764 161.5 22.4  46d   1
2021 09 22 04  22 43 10.912   +02 01 42.47  .48992 1.4765 161.5 22.4  46d   1
2021 09 22 05  22 43 09.711   +02 02 27.82  .49018 1.4767 161.4 22.4  46d   1
2021 09 22 06  22 43 08.514   +02 03 13.11  .49044 1.4768 161.4 22.4  46d   1
2021 09 22 07  22 43 07.321   +02 03 58.36  .49070 1.4770 161.4 22.4  46d   1
2021 09 22 08  22 43 06.132   +02 04 43.55  .49095 1.4772 161.3 22.4  46d   1
2021 09 22 09  22 43 04.948   +02 05 28.68  .49121 1.4773 161.3 22.4  46d   2
2021 09 22 10  22 43 03.768   +02 06 13.76  .49147 1.4775 161.2 22.4  46d   2
2021 09 22 11  22 43 02.592   +02 06 58.79  .49173 1.4777 161.2 22.4  47d   2
2021 09 22 12  22 43 01.421   +02 07 43.77  .49199 1.4778 161.2 22.4  47d   2
2021 09 22 13  22 43 00.254   +02 08 28.69  .49225 1.4780 161.1 22.4  47d   2
2021 09 22 14  22 42 59.091   +02 09 13.56  .49251 1.4781 161.1 22.4  47d   2
2021 09 22 15  22 42 57.933   +02 09 58.38  .49277 1.4783 161.0 22.4  47d   2